Tucson Davis Monthan, AZ

9:45 AM MST on June 24, 2018 (GMT -0700)
Davis-Monthan Air Force Base

Weather History for KDMA - October, 2017

Change the Weather History Date:

Friday, October 13, 2017

  Actual Average Record
Temperature  
Mean Temperature 78 °F -  
Max Temperature 93 °F 86 °F 98 °F (1998)
Min Temperature 64 °F 57 °F 38 °F (2008)
Cooling Degree Days 14    
Growing Degree Days 28 (Base 50)    
Moisture  
Dew Point 33 °F    
Average Humidity 20    
Maximum Humidity 34    
Minimum Humidity 10    
Precipitation  
Precipitation 0.00 in - - ()
Sea Level Pressure  
Sea Level Pressure 29.89 in    
Wind  
Wind Speed 4 mph (SE)    
Max Wind Speed 8 mph    
Max Gust Speed 13 mph    
Visibility 10 miles    
Events      
Averages and records for this station are not official NWS values.
T = Trace of Precipitation, MM = Missing Value Source: NWS Daily Summary

Daily Weather History Graph

Daily Weather History Graph

Search for Another Location

Airport or City:

Astronomy

Oct. 13, 2017 Rise Set
Actual Time 6:25 AM MST 5:52 PM MST
Civil Twilight 6:01 AM MST 6:17 PM MST
Nautical Twilight 5:32 AM MST 6:45 PM MST
Astronomical Twilight 5:04 AM MST 7:14 PM MST
Moon 12:16 AM MST (10/13) 2:18 PM MST (10/13)
Length of Visible Light 12h 16m
Length of Day
11h 27m
Last Quarter, 36% of the Moon is Illuminated
Oct 13
Last Quarter
Oct 19
New
Oct 27
First Quarter
Nov 3
Full
Nov 10
Last Quarter

Hourly Weather History & Observations

Time (MST) Temp. Dew Point Humidity Pressure Visibility Wind Dir Wind Speed Gust Speed Precip Events Conditions
12:58 AM 71.6 °F 26.6 °F 19% 29.86 in 9.0 mi SE 2.3 mph - N/A   Clear
1:58 AM 68.0 °F 28.4 °F 23% 29.88 in 10.0 mi SSE 5.8 mph - N/A   Clear
1:59 AM 68.0 °F 28.4 °F 23% 29.88 in 10.0 mi SSE 5.8 mph - N/A   Clear
2:58 AM 68.0 °F 33.8 °F 28% 29.88 in 9.0 mi ESE 3.5 mph - N/A   Clear
3:58 AM 66.2 °F 33.8 °F 30% 29.88 in 9.0 mi East 3.5 mph - N/A   Partly Cloudy
3:59 AM - - N/A% - 10.0 mi East 3.5 mph - N/A   Partly Cloudy
4:58 AM 66.2 °F 35.6 °F 32% 29.89 in 10.0 mi ESE 5.8 mph - N/A   Clear
5:58 AM 64.4 °F 35.6 °F 34% 29.92 in 10.0 mi SSE 1.2 mph - N/A   Clear
6:58 AM 68.0 °F 33.8 °F 28% 29.94 in 7.0 mi Variable 2.3 mph - N/A   Clear
7:55 AM 73.4 °F 33.8 °F 23% 29.94 in 8.0 mi ESE 2.3 mph - N/A   Clear
7:58 AM - - N/A% - 8.0 mi SE 6.9 mph - N/A   Clear
8:55 AM 80.6 °F 33.8 °F 18% 29.94 in 10.0 mi Variable 2.3 mph - N/A   Clear
9:55 AM 84.2 °F 26.6 °F 12% 29.93 in 10.0 mi ENE 2.3 mph - N/A   Clear
10:55 AM 89.6 °F 26.6 °F 10% 29.90 in 10.0 mi Variable 3.5 mph - N/A   Clear
11:59 AM 91.4 °F 44.6 °F 20% 30.01 in 10.0 mi Variable 4.6 mph - N/A   Partly Cloudy
12:59 PM 91.4 °F 42.8 °F 18% 29.97 in 10.0 mi West 8.1 mph 12.7 mph N/A   Partly Cloudy
1:59 PM 93.2 °F 39.2 °F 15% 29.95 in 10.0 mi Variable 3.5 mph - N/A   Partly Cloudy
2:59 PM 93.2 °F 39.2 °F 15% 29.94 in 10.0 mi Variable 3.5 mph - N/A   Partly Cloudy
3:55 PM 93.6 °F 36.3 °F 13% 29.80 in 10.0 mi Variable 4.6 mph - N/A   Partly Cloudy
4:55 PM 90.7 °F 32.9 °F 13% 29.81 in 10.0 mi NW 5.8 mph - N/A   Partly Cloudy
5:55 PM 87.4 °F 30.6 °F 13% 29.83 in 10.0 mi Variable 5.8 mph - N/A   Clear
6:55 PM 83.1 °F 29.8 °F 14% 29.85 in 10.0 mi WNW 5.8 mph - N/A   Clear
7:55 PM 80.6 °F 28.4 °F 15% 29.86 in 10.0 mi Variable 5.8 mph - N/A   Clear
8:55 PM 78.6 °F 30.2 °F 17% 29.87 in 10.0 mi Variable 3.5 mph - N/A   Clear
9:55 PM 74.1 °F 30.2 °F 20% 29.88 in 10.0 mi SSE 3.5 mph - N/A   Clear
10:55 PM 73.6 °F 30.6 °F 20% 29.88 in 10.0 mi South 3.5 mph - N/A   Clear
11:55 PM 72.3 °F 30.6 °F 21% 29.88 in 10.0 mi SSE 4.6 mph - N/A   Clear